Flag for Tajikistan Weather past 2 weeks in Dushanbe, Tajikistan

Now
70 °F

Clear.


Feels Like: 70 °F
Forecast: 69 / 94 °F
Wind: 1 mph from North

Location: Dushanbe Airport

Current Time: Aug 3, 2015 at 5:44:11 AM

Latest Report: Aug 3, 2015 at 5:00 AM


Visibility: N/A

Pressure: 29.80 "Hg (27.05 "Hg at 832m altitude)

Humidity: 53%

Dew point: 52 °F

Location of DushanbeLocation

Historic Weather in Dushanbe — Graph

°F

Dushanbe temperature yesterday

Maximum temperature yesterday: 99 °F (at 3:00 PM)
Minimum temperature yesterday: 64 °F (at 5:30 AM)
Average temperature yesterday: 83 °F

Past Weeks' High & Low Weather Summary

 TemperatureHumidityPressure
High100 °F (Jul 20, 2:30 PM)78% (Aug 2, 5:30 AM)29.95 "Hg (Aug 2, 5:30 AM)
Low64 °F (Aug 2, 5:30 AM)17% (Aug 2, 4:00 PM)29.56 "Hg (Jul 27, 3:30 PM)
Average84 °F43%29.75 "Hg
* Reported Jul 19 4:00 AM — Aug 3 4:00 AM, Dushanbe, Weather by CustomWeather, © 2015

Note: Actual official high and low records may vary slightly from our data, if they occured in-between our weather recording intervals... More about our weather records

Advertising

Dushanbe weather history for previous 24 hours

 ConditionsComfort  
Time TempWeatherWind HumidityBarometerVisibility
4:00 AM
Mon, Aug 3
72 °FClear.No wind53%29.77 "HgN/A
3:30 AM72 °FClear.1 mph53%29.77 "HgN/A
3:00 AM70 °FClear.1 mph53%29.77 "HgN/A
2:30 AM72 °FClear.1 mph50%29.77 "HgN/A
2:00 AM73 °FClear.1 mph44%29.77 "HgN/A
1:30 AM72 °FClear.3 mph50%29.77 "HgN/A
1:00 AM75 °FClear.1 mph44%29.77 "HgN/A
12:30 AM77 °FClear.1 mph44%29.77 "HgN/A
12:00 AM73 °FClear.3 mph50%29.77 "HgN/A
11:30 PM
Sun, Aug 2
75 °FClear.3 mph47%29.77 "HgN/A
11:00 PM77 °FClear.1 mph42%29.77 "HgN/A
10:30 PM77 °FClear.3 mph42%29.77 "HgN/A
10:00 PM81 °FClear.3 mph37%29.77 "HgN/A
9:30 PM82 °FClear.1 mph37%29.77 "Hg6 mi
9:00 PM84 °FClear.1 mph35%29.77 "HgN/A
8:30 PM84 °FClear.3 mph35%29.74 "HgN/A
8:00 PM90 °FClear.6 mph24%29.74 "HgN/A
7:30 PM90 °FClear.8 mph26%29.74 "HgN/A
7:00 PM91 °FClear.8 mph24%29.74 "HgN/A
6:30 PM93 °FPassing clouds.8 mph24%29.74 "HgN/A
6:00 PM95 °FPassing clouds.6 mph25%29.71 "HgN/A
5:30 PM99 °FPassing clouds.1 mph17%29.71 "HgN/A
5:00 PM99 °FPassing clouds.1 mph18%29.74 "HgN/A
4:30 PM97 °FPassing clouds.6 mph18%29.74 "HgN/A
4:00 PM99 °FPassing clouds.1 mph17%29.74 "HgN/A
3:30 PM97 °FPassing clouds.1 mph20%29.74 "HgN/A
3:00 PM99 °FPassing clouds.3 mph19%29.77 "HgN/A
2:30 PM97 °FPassing clouds.6 mph22%29.77 "HgN/A
2:00 PM95 °FPassing clouds.3 mph22%29.77 "HgN/A
1:30 PM95 °FPassing clouds.3 mph22%29.80 "HgN/A
1:00 PM95 °FPassing clouds.3 mph22%29.80 "HgN/A
12:30 PM95 °FPassing clouds.3 mph25%29.80 "HgN/A
12:00 PM93 °FPassing clouds.1 mph26%29.83 "HgN/A
11:30 AM91 °FPassing clouds.1 mph30%29.83 "HgN/A
11:00 AM90 °FPassing clouds.1 mph29%29.83 "HgN/A
10:30 AM90 °FClear.1 mph33%29.83 "HgN/A
10:00 AM86 °FPassing clouds.1 mph38%29.83 "HgN/A
9:30 AM84 °FPassing clouds.3 mph43%29.83 "HgN/A
9:00 AM81 °FClear.3 mph48%29.86 "HgN/A
8:30 AM79 °FClear.1 mph48%29.83 "Hg6 mi
8:00 AM77 °FClear.1 mph47%29.86 "Hg5 mi
7:30 AM75 °FClear.1 mph50%29.83 "HgN/A
7:00 AM73 °FClear.1 mph57%29.83 "HgN/A
6:30 AM70 °FClear.3 mph64%29.83 "HgN/A
6:00 AM66 °FClear.No wind73%29.83 "HgN/A
5:30 AM64 °FClear.1 mph78%29.83 "HgN/A
5:00 AM66 °FPassing clouds.No wind68%29.83 "HgN/A
Weather by CustomWeather, © 2015

See weather overviewHow to use our weather pages